Regional Weather Roundup
Issued by NWS Albany, NY

Home | Current Version | Previous Version | Text Only | Print | Product List | Glossary On
Versions: 1 2 3 4 5 6 7 8 9 10 11 12 13 14 15 16 17 18 19 20 21 22 23 24 25 26 27
000
ASUS41 KALY 170710
RWRALY

NEW YORK STATE HOURLY WEATHER ROUNDUP
NATIONAL WEATHER SERVICE ALBANY NY
300 AM EDT TUE OCT 17 2017

NOTE: "FAIR" INDICATES FEW OR NO CLOUDS BELOW 12,000 FEET WITH NO
SIGNIFICANT WEATHER AND/OR NO OBSTRUCTIONS TO VISIBILITY.

NYZ032-033-038>043-046>054-057>066-NYZ062>081-082-084-170800-
EAST


CITY           SKY/WX    TMP DP  RH WIND       PRES   REMARKS
ALBANY         PTCLDY    37  31  78 NW5       30.26R WCI  33
GLENS FALLS    CLEAR     36  28  73 NW6       30.23S WCI  31
POUGHKEEPSIE   CLEAR     34  32  92 CALM      30.24R
NEWBURGH       CLEAR     36  34  93 CALM      30.25S
MONTGOMERY     PTCLDY    38  32  79 CALM      30.24R
WHITE PLAINS   CLEAR     38  32  79 N7        30.23R WCI  33
ISLIP          CLEAR     46  33  60 N12       30.22R
NEW YORK CITY  CLEAR     47  34  60 NW10      30.24R
CENTRAL PARK   CLEAR     45  31  58 VRB5      30.27R
$$

NYZ005>009-017-018-044>046-055-056-170800-
CENTRAL


CITY           SKY/WX    TMP DP  RH WIND       PRES   REMARKS
FULTON         CLEAR     33  31  92 CALM      30.27S
SYRACUSE       CLEAR     36  35  96 CALM      30.27S
ROME           PTCLDY    33  31  92 CALM      30.29R
ELMIRA         CLEAR     34  33  96 SW6       30.28R WCI  29
BINGHAMTON     CLEAR     34  28  79 NW3       30.24R
MONTICELLO     CLEAR     32  29  88 W3        30.23S
$$

NYZ026>034-041>043-087-170800-
NORTH


CITY           SKY/WX    TMP DP  RH WIND       PRES   REMARKS
WATERTOWN      CLEAR     28  28 100 E3        30.27R
FORT DRUM      NOT AVBL
OGDENSBURG     FAIR      31  30  97 CALM      30.25S
MASSENA        PTCLDY    31  30  96 CALM      30.26R
SARANAC LAKE   CLEAR     24  24 100 CALM      30.19R
PLATTSBURGH    CLEAR     33  29  85 CALM      30.23R
$$

NYZ001>004-010>016-019>021-085-170800-
WEST


CITY           SKY/WX    TMP DP  RH WIND       PRES   REMARKS
NIAGARA FALLS    N/A     37  31  78 CALM      30.27R
BUFFALO        CLEAR     35  32  88 SE5       30.27R WCI  31
DUNKIRK        CLEAR     35  32  88 S3        30.28R
JAMESTOWN      CLEAR     32  31  96 S5        30.27S WCI  27
WELLSVILLE     CLEAR     33  27  78 CALM      30.26R
ROCHESTER      CLEAR     35  34  96 SW6       30.29R WCI  30
$$

             KEY
       WCI = WIND CHILL INDEX
       VSB = VISIBILITY
       HX  = HEAT INDEX
$$




USA.gov is the U.S. government's official web portal to all federal, state and local government web resources and services.